Lid_Strength_Index
4 4 4 4 4 3 3 2 2 2 1 1 1 1 1 1 1 2 4 3 5 9 6 5 4 6 6 7 10 8 8 8 9 13 13 13 13 12 13 11 13 15 16 16 16 18 19 7 8 12 9 10 9 8
3 4 4 4 4 3 2 3 2 1 1 1 1 1 1 1 0 0 5 3 3 5 6 2 2 2 3 3 6 6 7 6 7 10 10 9 12 11 12 16 10 15 12 14 13 13 8 6 7 7 9 9 10 9
4 4 3 4 3 3 2 3 2 1 1 2 2 2 1 1 1 2 5 4 5 8 6 5 6 3 2 1 1 7 6 5 6 4 7 9 12 10 15 13 11 10 8 12 12 9 8 7 8 9 10 9 9 9
4 4 4 3 3 2 3 3 2 1 1 2 2 2 1 1 2 3 5 3 3 5 9 9 3 3 2 1 2 2 3 3 4 5 8 10 12 9 11 10 11 10 9 11 11 9 9 8 8 9 10 10 10 9
4 4 4 3 2 2 3 3 2 2 2 2 2 2 1 1 1 2 2 2 1 5 9 8 4 3 2 2 3 3 4 4 6 9 10 11 8 9 9 10 13 8 10 12 13 8 8 8 6 9 9 10 10 11
4 4 4 3 2 3 3 3 3 1 2 2 2 1 1 1 1 2 6 1 0 1 6 10 5 5 3 3 4 5 4 5 6 8 9 8 6 9 12 13 8 7 6 6 8 6 6 6 8 5 8 8 9 10
4 3 4 3 2 3 3 3 3 2 2 2 2 2 1 1 1 4 5 2 1 0 6 10 9 5 5 5 6 6 6 6 7 8 9 9 8 8 10 13 10 7 6 6 5 7 8 9 8 8 8 9 10 10
4 4 4 3 2 3 3 3 3 2 2 1 2 2 2 3 3 5 2 2 1 3 4 10 10 8 5 8 9 7 8 9 10 9 8 9 8 9 13 9 9 8 6 6 6 6 6 7 9 9 9 11 11 11
5 4 4 3 2 3 3 3 3 3 2 3 3 4 5 7 8 6 3 2 1 3 9 9 11 12 6 8 7 8 8 10 7 10 9 9 11 13 10 8 7 6 7 7 7 8 9 10 10 10 11 11 11 12
5 4 3 3 3 3 3 3 3 3 4 4 5 8 10 8 5 4 6 8 8 8 7 8 7 10 8 8 9 8 8 10 12 9 8 11 11 7 6 6 6 6 7 6 9 9 8 9 10 10 10 10 11 12
5 4 3 3 3 3 3 3 3 3 4 7 8 9 7 5 7 8 10 10 10 10 8 8 8 10 6 9 9 7 10 9 13 11 11 12 12 8 7 7 6 6 7 7 6 6 6 7 9 10 11 11 11 11
5 4 3 3 3 3 4 3 3 4 5 6 6 6 6 8 9 11 11 11 10 11 10 10 10 8 8 5 8 9 10 10 14 8 12 13 9 9 9 7 8 7 7 7 6 7 7 8 9 10 10 10 10 10
5 5 3 3 3 3 4 3 3 3 4 4 7 10 9 11 13 13 15 13 12 10 10 10 10 8 8 6 8 9 12 12 8 12 12 10 9 9 8 8 8 7 7 7 7 7 8 9 9 9 9 10 10 11
5 5 3 3 2 3 3 3 3 3 5 9 10 13 12 14 12 11 10 9 8 8 9 9 9 8 7 9 9 12 10 9 13 14 13 10 9 9 9 8 8 8 7 8 8 9 9 9 10 10 11 11 12 13
5 4 3 3 2 3 3 3 3 3 6 9 9 14 12 10 9 8 8 8 8 8 9 9 8 7 10 10 10 11 13 14 13 12 10 9 9 9 9 8 8 9 10 10 10 11 12 12 11 11 11 11 12 13
5 4 3 3 3 2 2 2 3 4 6 8 9 11 10 10 10 9 8 9 7 8 7 6 10 11 11 10 12 13 13 14 13 10 9 8 9 9 9 9 10 10 11 12 12 12 12 12 13 13 12 12 13 13
5 5 3 3 2 3 3 4 5 7 8 9 10 8 8 8 8 8 7 8 6 8 9 9 12 13 10 12 13 10 12 12 11 10 9 9 9 10 9 10 11 11 11 12 12 12 12 12 12 12 13 13 12 12
5 3 3 3 2 4 4 4 6 7 10 9 10 9 8 8 8 8 8 6 7 8 8 10 8 12 13 14 13 10 11 11 11 10 9 9 9 9 10 11 11 11 12 12 11 11 11 12 12 13 14 14 13 13
5 3 4 2 2 4 7 6 6 10 9 8 9 8 8 8 7 7 7 7 6 6 8 9 11 12 11 10 10 10 11 10 11 11 10 10 10 10 10 10 10 11 10 10 10 10 10 10 11 10 10 10 11 10
3 3 2 2 3 4 8 8 5 8 10 8 8 8 8 8 8 8 8 8 8 8 9 11 12 11 11 10 10 9 10 10 10 11 11 10 9 9 9 9 10 10 10 10 10 10 9 9 8 8 9 9 10 10
3 3 3 2 3 4 6 7 8 7 8 9 8 8 9 7 8 9 9 8 8 9 10 11 11 11 10 9 8 8 9 8 9 9 11 11 10 9 9 9 8 8 9 9 9 9 9 9 9 8 8 8 9 9
3 3 3 3 5 6 6 5 6 6 7 8 8 7 9 9 9 9 8 8 9 10 9 9 9 8 8 9 8 8 8 8 8 8 8 8 8 8 8 7 7 7 7 7 8 8 8 8 8 8 9 9 9 9
3 3 5 6 8 8 9 5 8 7 9 9 7 9 9 8 8 6 9 9 9 8 7 7 8 7 8 7 7 7 7 7 7 7 7 7 7 7 7 7 7 8 8 8 7 8 9 9 9 9 9 9 9 10
4 7 9 9 9 11 8 9 7 8 9 9 10 11 10 8 6 8 10 8 8 6 7 7 6 7 6 7 7 7 7 6 6 7 6 7 8 8 7 7 7 7 7 7 8 8 9 9 10 9 10 11 11 11
9 12 10 13 10 11 11 11 11 11 12 11 11 10 9 7 10 10 10 8 7 6 6 6 5 6 7 7 7 7 5 5 6 7 6 6 7 8 8 8 8 8 7 8 9 10 10 10 11 11 12 12 13 14
14 12 12 12 12 11 11 13 12 12 11 11 11 9 8 9 12 12 10 8 8 7 6 5 6 7 7 5 6 6 6 5 6 8 8 6 6 7 8 9 10 11 9 9 10 11 12 13 13 14 15 16 19 16
14 13 10 8 9 10 11 11 10 10 12 12 11 11 11 13 13 11 9 8 8 8 6 5 5 5 8 10 10 9 8 7 8 10 10 10 9 8 7 10 12 12 11 11 11 12 13 14 15 16 17 18 19 19
10 10 13 11 11 10 12 12 12 12 11 10 11 14 14 13 13 10 10 9 9 9 10 9 8 8 9 10 11 11 11 12 12 12 12 13 13 13 14 14 15 16 15 14 14 14 15 16 17 18 19 20 22 21
10 9 10 15 12 11 12 12 12 11 10 10 12 13 13 12 12 11 10 10 10 10 11 12 13 11 12 11 10 10 9 9 10 13 14 14 15 16 14 14 14 14 15 17 18 19 19 20 20 21 21 22 22 22
10 9 12 14 14 14 13 11 11 10 10 10 11 12 13 13 13 11 10 10 10 11 11 11 10 10 11 11 12 13 13 11 9 11 13 14 16 16 16 16 16 16 16 17 19 20 21 20 21 21 22 22 22 22
10 9 11 12 13 12 11 9 9 10 10 10 10 12 13 13 13 14 14 12 11 11 11 11 11 10 10 11 11 12 15 15 15 14 14 15 16 17 18 18 17 17 18 19 20 21 21 22 22 23 24 24 24 23
10 11 11 13 13 10 9 10 11 11 11 11 12 11 12 12 15 15 16 14 11 11 12 11 13 15 15 15 15 15 16 16 16 17 17 18 18 19 19 19 19 20 21 21 22 23 23 23 23 23 24 24 24 23
11 10 10 11 11 11 10 10 12 13 12 13 14 14 15 14 17 16 15 16 13 13 14 15 16 16 17 17 17 18 19 20 21 21 22 21 21 20 20 20 20 21 22 22 23 23 24 24 24 24 24 24 23 22